COSMOS 1275 DEB

Satellite information

Favourite Embed

Satellite Type and Status

DEBRISIN ORBIT

Key statistics

Satellite COSMOS 1275 DEB at a glance.

Uptime

16263

Days in orbit

Revolutions

≈ 14.0

Per day

Orbit

LEO

Low Earth Orbit

Inclination

82.8

Latest

Satellite identification and parameters

Extended collection of information and parameters for COSMOS 1275 DEB.

Object identification

Identified? True

Debris? True

Object name: COSMOS 1275 DEB

International designator: 1981-053ED

Object number (NORAD): 12949

Object ID (CCSDS): 12949

Country: COMMONWEALTH OF INDEPENDENT STATES (CIS)

Current information (Y/N): Y

RCS size: SMALL

Orbital parameters

Period: 103.131 minutes

Inclination: 82.8435 deg

SMA: 7284.834 km

Apoapsis: 928.469 km

Periapsis: 884.929 km

RAAN: 315.2451 deg

Eccentricy: 0.00298838

Argument of periapsis: 244.5337 deg

Mean anomaly: 170.2958 deg

Mean motion: 13.96282421 rev/day

Mean motion (dot): 0.00001144 rev/day2

B* drag term: 0.00081739852 1/REarth

Two-line elements (TLE)

Creation date: Dec. 12, 2025, 10:14 a.m.

Reference frame: TEME

Reference center: EARTH

Epoch: Dec. 11, 2025, 10:38 p.m. UTC

TLE line 0: 0 COSMOS 1275 DEB

TLE line 1: 1 12949U 81053ED 25345.94344833 .00001144 00000-0 81740-3 0 9992

TLE line 2: 2 12949 82.8435 315.2451 0029884 244.5337 170.2958 13.96282421234668

Live tracking on map

Real-time ground track for satellite COSMOS 1275 DEB.

In-orbit conjunctions

A list of the most updated potential collisions computed for object COSMOS 1275 DEB.

Target Orbit TCA Probability of collision Miss distance Type
DELTA 1 DEB SSO 2025-05-04 09:58:04 0.0001142941 73.0 (m) DEBRIS
FENGYUN 1C DEB SSO 2025-03-11 06:17:40 0.0002484372 50.0 (m) DEBRIS
SL-3 R/B LEO 2024-12-22 19:02:45 0.0004117569 157.0 (m) ROCKET BODY
SL-14 DEB LEO 2024-11-16 09:39:11 0.0001944389 780.0 (m) DEBRIS

Associated space launch

Navigation satellite providing location information for the Tsiklon-B navigation system

COSMOS 1275 DEB was lifted into orbit during the mission ‘Kosmos-3M | Parus 27’, on board a Kosmos-3M space rocket.

The launch took place on June 4, 1981, 3:41 p.m. from 132/2.

For more information about the launch, click the button.

Launch to space Kosmos-3M | Parus 27
Kosmos-3M | Parus 27

Agency: N/A

Status: Launch Successful

Launch date: June 4, 1981, 3:41 p.m. UTC

Rocket: Kosmos-3M

Launch pad: 132/2

Location: Plesetsk Cosmodrome, Russian Federation

...

Latest news about this satellite

There are no fresh news available about this satellite. Check back as we update our databases every day.


Newsletter sign-up

Weekly statistics, charts and insights to help you stay on top of the space industry.